Regional Weather Roundup
Issued by NWS

Home | Current Version | Previous Version | Text Only | Print | Product List | Glossary Off
Versions: 1 2 3 4 5 6 7 8 9 10 11 12 13 14 15 16 17 18 19 20 21 22 23 24 25 26 27 28 29 30 31 32 33 34 35 36 37 38 39 40 41 42 43 44 45 46 47 48 49 50

000
ASUS43 KDTX 070410
RWRMI
MICHIGAN HOURLY REGIONAL WEATHER ROUNDUP
NATIONAL WEATHER SERVICE DETROIT/PONTIAC MI
1200 AM EDT THU MAY 07 2015

NOTE: "FAIR" INDICATES FEW OR NO CLOUDS BELOW 12,000 FEET WITH NO
SIGNIFICANT WEATHER AND/OR OBSTRUCTION TO VISIBILITY.

MIZ047>049-052>055-059>063-066>070-074>076-081>083-070500-
SOUTHEAST LOWER MICHIGAN

CITY           SKY/WX    TMP DP  RH WIND       PRES   REMARKS
ADRIAN         CLEAR     56  53  90 E3        30.19S
ALMA           CLEAR     58  54  85 E6        30.16S
ANN ARBOR      CLEAR     55  53  93 CALM      30.18S FOG
BAD AXE        CLEAR     51  42  71 CALM      30.19R
CARO           CLEAR     57  53  88 CALM      30.17S
DETROIT CITY   CLEAR     60  55  83 CALM      30.18S
DETROIT        MOCLDY    59  54  83 CALM      30.19S
FLINT          CLEAR     63  56  78 S6        30.17S
GROSSE ILE     CLEAR     54  52  94 S3        30.17F FOG
HILLSDALE      CLEAR     59  58  96 SE7       30.18S
HOWELL         CLEAR     61  59  92 S3        30.18S FOG

CITY           SKY/WX    TMP DP  RH WIND       PRES   REMARKS
JACKSON        CLEAR     59  57  93 SE7       30.17F FOG
LAMBERTVILLE   CLEAR     54  50  87 CALM      30.18S FOG
LANSING        CLEAR     64  59  83 SE6       30.17S
LAPEER         FAIR      57  55  93 CALM      30.18S
MASON          CLEAR     60  58  92 S5        30.17S FOG
MONROE         FOG       52  52 100 CALM      30.17S VSB 1/2
MT. CLEMENS    CLEAR     55  54  94 E3        30.17R FOG
PONTIAC        PTCLDY    61  56  83 SE5       30.18R
PORT HOPE        N/A     50  41  71 SE7       30.17S
PORT HURON     CLEAR     48  46  93 CALM      30.19S FOG
TRI CITIES     CLEAR     56  51  84 E5        30.17S
MIDLAND        FAIR      55  50  84 E3        30.16S
TROY           CLEAR     63  59  87 CALM      30.20S
SAGINAW HB     CLEAR     55  50  82 CALM      30.17S
$$
MIZ043>046-050>051-056>058-064>065-071>073-077>080-070500-
SOUTHWEST LOWER MICHIGAN

CITY           SKY/WX    TMP DP  RH WIND       PRES   REMARKS
BATTLE CREEK   MOCLDY    65  59  81 SE8       30.15F
BENTON HARBOR  PTCLDY    68  62  81 SE8       30.09S
BIG RAPIDS     CLEAR     63  57  81 SE3       30.13F
COLDWATER      CLEAR     60  56  87 SE8       30.16S FOG
FREMONT        FAIR      66  58  77 SE5       30.11S
HOLLAND        PTCLDY    66  61  84 E8        30.12S
GRAND RAPIDS   PTCLDY    66  59  78 SE9       30.13S
IONIA          FAIR      64  59  86 SE8       30.14S
KALAMAZOO      PTCLDY    66  59  78 SE6       30.14S HAZE
LUDINGTON      CLEAR     56  52  88 CALM      30.10F
MARSHALL       CLEAR     61  58  91 E7        30.15F FOG
MOUNT PLEASANT FAIR      58  51  77 E5        30.15F
MUSKEGON       PTCLDY    66  60  81 SE7       30.10F
SOUTH HAVEN    PTCLDY    70  62  75 SE8       30.10S
$$
MIZ016>042-070500-
NORTHERN LOWER MICHIGAN

CITY           SKY/WX    TMP DP  RH WIND       PRES   REMARKS
ALPENA         CLEAR     49  43  80 SE3       30.17S
BEAVER ISLAND  CLEAR     47  41  81 E3        30.12S
BELLAIRE       CLEAR     54  48  82 CALM      30.12S
CADILLAC       PTCLDY    63  53  70 SE7       30.14S
CHARLEVOIX     CLEAR     55  42  62 E3        30.14S
FRANKFORT      MOCLDY    56  46  70 CALM      30.10S
GAYLORD        CLEAR     60  51  72 S7        30.14F
GRAYLING       CLEAR     58  50  74 SE5       30.16S
HARBOR SPRINGS CLEAR     56  45  65 E7        30.12F
HOUGHTON LAKE  CLEAR     57  49  74 SE5       30.16S
MANISTEE       PTCLDY    54  46  76 CALM      30.11F
OSCODA         CLEAR     46  41  81 CALM      30.18S
PELLSTON       CLEAR     51  43  74 CALM      30.13F
ROGERS CITY    CLEAR     55  46  72 SE6       30.15F
TRAVERSE CITY  PTCLDY    53  42  66 CALM      30.11S
$$
MIZ007>008-015-070500-
EASTERN UPPER MICHIGAN

CITY           SKY/WX    TMP DP  RH WIND       PRES   REMARKS
KINROSS        CLEAR     54  43  66 SE10      30.14F
MACKINAC ISLAN CLEAR     42  37  82 E7        30.13F
NEWBERRY       CLEAR     54  41  63 SE8       30.11F
S. S. MARIE    CLEAR     52  40  63 E6        30.15S
MUNISING         N/A     59  35  40 S8        30.09S
$$
MIZ004>006-011>014-085-070500-
CENTRAL UPPER MICHIGAN

CITY           SKY/WX    TMP DP  RH WIND       PRES   REMARKS
MANISTIQUE     CLEAR     48  41  76 SE6       30.10F
ESCANABA       PTCLDY    46  39  76 CALM      30.10S
MENOMINEE      MOCLDY    52  41  66 E3        30.09S
SAWYER-GWINN   PTCLDY    53  47  77 S7        30.09F
$$
MIZ001>003-009>011-084-070500-
WESTERN UPPER MICHIGAN

CITY           SKY/WX    TMP DP  RH WIND       PRES   REMARKS
IRON MOUNTAIN  PTCLDY    55  48  77 SE7       30.07F
HOUGHTON       MOCLDY    56  40  55 E7        30.03S
COPPER HARBOR    N/A     58  39  49 SW10G22   30.01F
IRONWOOD       PTCLDY    64  57  77 S10G16    29.95F
$$

ABBREVIATIONS USED IN REMARKS
   TC - TEMPERATURE IN CELSIUS
  WCI - WIND CHILL INDEX
   HX - HEAT INDEX
  VSB - VISIBILITY



USA.gov is the U.S. government's official web portal to all federal, state and local government web resources and services.